OKPRC LDSP-LIBP

Flight info

Callsign OKPRC
Flight time 0h 41m
Altitude 15000
Route VELUG1W/05 VELUG Z924 ETRIN
Aircraft PC12/L-SDFGRWY/S

Departure

Time 2026-05-07 19:19
Airport Split Saint Jerome Airport (LDSP)

Arrival

Time 2026-05-07 20:00
Airport Abruzzo Airport (LIBP)
Time Latitude Longitude Altitude Speed Heading
2026-05-07 19:00 43.53584 16.29704 64 ft 0 kts 96°
2026-05-07 19:12 43.53583 16.29709 37 ft 0 kts 103°
2026-05-07 19:12 43.53580 16.29716 64 ft 1 kts 124°
2026-05-07 19:12 43.53566 16.29718 60 ft 4 kts 213°
2026-05-07 19:13 43.53575 16.29651 64 ft 13 kts 288°
2026-05-07 19:13 43.53629 16.29578 62 ft 10 kts 327°
2026-05-07 19:13 43.53664 16.29569 64 ft 1 kts
2026-05-07 19:13 43.53628 16.29563 62 ft 0 kts 33°
2026-05-07 19:14 43.53614 16.29551 64 ft 0 kts 31°
2026-05-07 19:14 43.53624 16.29560 63 ft 7 kts 28°
2026-05-07 19:14 43.53661 16.29570 63 ft 0 kts
2026-05-07 19:18 43.53688 16.29563 65 ft 5 kts 324°
2026-05-07 19:18 43.53697 16.29519 75 ft 7 kts 277°
2026-05-07 19:18 43.53725 16.29490 75 ft 6 kts 33°
2026-05-07 19:18 43.53751 16.29536 79 ft 22 kts 50°
2026-05-07 19:19 43.53995 16.29968 84 ft 88 kts 50°
2026-05-07 19:19 43.54321 16.30741 390 ft 98 kts 76°
2026-05-07 19:19 43.54314 16.31737 677 ft 107 kts 95°
2026-05-07 19:19 43.54203 16.32761 1033 ft 113 kts 107°
2026-05-07 19:20 43.54013 16.33410 1250 ft 120 kts 121°
2026-05-07 19:20 43.53499 16.34326 1788 ft 118 kts 131°
2026-05-07 19:20 43.53192 16.35351 2284 ft 123 kts 100°
2026-05-07 19:20 43.52723 16.36294 2771 ft 123 kts 141°
2026-05-07 19:21 43.52031 16.37004 3268 ft 125 kts 147°
2026-05-07 19:21 43.51293 16.37653 3764 ft 127 kts 150°
2026-05-07 19:21 43.50522 16.38279 4254 ft 130 kts 152°
2026-05-07 19:21 43.49725 16.38904 4734 ft 133 kts 154°
2026-05-07 19:22 43.48909 16.39534 5213 ft 136 kts 155°
2026-05-07 19:22 43.48027 16.39735 5699 ft 131 kts 202°
2026-05-07 19:22 43.47340 16.38927 6158 ft 134 kts 234°
2026-05-07 19:22 43.46815 16.37868 6650 ft 135 kts 234°
2026-05-07 19:23 43.46244 16.36833 7141 ft 136 kts 231°
2026-05-07 19:23 43.45657 16.35820 7641 ft 135 kts 231°
2026-05-07 19:23 43.45064 16.34805 8123 ft 137 kts 231°
2026-05-07 19:23 43.44465 16.33782 8625 ft 137 kts 232°
2026-05-07 19:24 43.43863 16.32756 9129 ft 138 kts 232°
2026-05-07 19:24 43.43277 16.31760 9623 ft 139 kts 232°
2026-05-07 19:24 43.42676 16.30737 10113 ft 140 kts 232°
2026-05-07 19:24 43.42063 16.29695 10582 ft 140 kts 232°
2026-05-07 19:25 43.41447 16.28646 11057 ft 141 kts 232°
2026-05-07 19:25 43.40827 16.27592 11529 ft 142 kts 232°
2026-05-07 19:25 43.40202 16.26530 12001 ft 143 kts 233°
2026-05-07 19:25 43.39576 16.25465 12480 ft 143 kts 233°
2026-05-07 19:26 43.38945 16.24395 12946 ft 145 kts 233°
2026-05-07 19:26 43.38308 16.23313 13405 ft 146 kts 233°
2026-05-07 19:26 43.37666 16.22223 13872 ft 147 kts 233°
2026-05-07 19:26 43.37027 16.21140 14289 ft 147 kts 233°
2026-05-07 19:27 43.36382 16.20048 14710 ft 147 kts 233°
2026-05-07 19:27 43.35730 16.18943 15054 ft 154 kts 233°
2026-05-07 19:27 43.35055 16.17799 15466 ft 152 kts 233°
2026-05-07 19:27 43.34386 16.16672 15879 ft 152 kts 233°
2026-05-07 19:28 43.33716 16.15541 16286 ft 153 kts 233°
2026-05-07 19:28 43.33044 16.14404 16698 ft 153 kts 234°
2026-05-07 19:28 43.32374 16.13269 17106 ft 153 kts 234°
2026-05-07 19:28 43.31703 16.12133 17513 ft 153 kts 234°
2026-05-07 19:29 43.31032 16.11000 17921 ft 153 kts 234°
2026-05-07 19:29 43.30360 16.09866 18320 ft 153 kts 234°
2026-05-07 19:29 43.29682 16.08724 18661 ft 154 kts 234°
2026-05-07 19:29 43.29005 16.07582 18998 ft 154 kts 234°
2026-05-07 19:30 43.28325 16.06433 19330 ft 155 kts 234°
2026-05-07 19:30 43.27641 16.05280 19664 ft 156 kts 234°
2026-05-07 19:30 43.26964 16.04138 19986 ft 156 kts 234°
2026-05-07 19:30 43.26248 16.02925 20042 ft 172 kts 234°
2026-05-07 19:31 43.25460 16.01596 20045 ft 185 kts 233°
2026-05-07 19:31 43.24624 16.00194 20046 ft 194 kts 233°
2026-05-07 19:31 43.23755 15.98734 20049 ft 200 kts 233°
2026-05-07 19:31 43.22865 15.97238 20047 ft 205 kts 233°
2026-05-07 19:32 43.21955 15.95711 20047 ft 208 kts 233°
2026-05-07 19:32 43.21029 15.94160 20061 ft 210 kts 233°
2026-05-07 19:32 43.20106 15.92610 20098 ft 210 kts 233°
2026-05-07 19:32 43.19160 15.91021 20138 ft 211 kts 233°
2026-05-07 19:33 43.18254 15.89500 20172 ft 211 kts 233°
2026-05-07 19:33 43.17282 15.87871 20211 ft 211 kts 233°
2026-05-07 19:33 43.16340 15.86292 20251 ft 211 kts 233°
2026-05-07 19:33 43.15407 15.84731 20291 ft 211 kts 233°
2026-05-07 19:34 43.14475 15.83171 20326 ft 211 kts 233°
2026-05-07 19:34 43.13533 15.81594 20362 ft 212 kts 233°
2026-05-07 19:34 43.12605 15.80045 20529 ft 206 kts 233°
2026-05-07 19:34 43.11710 15.78558 20763 ft 199 kts 232°
2026-05-07 19:35 43.10839 15.77109 21008 ft 194 kts 233°
2026-05-07 19:35 43.09991 15.75692 21263 ft 190 kts 233°
2026-05-07 19:35 43.09159 15.74300 21514 ft 187 kts 233°
2026-05-07 19:35 43.08335 15.72925 21770 ft 185 kts 233°
2026-05-07 19:36 43.07523 15.71574 22027 ft 183 kts 233°
2026-05-07 19:36 43.06715 15.70224 22292 ft 182 kts 233°
2026-05-07 19:36 43.05917 15.68891 22555 ft 181 kts 233°
2026-05-07 19:36 43.05105 15.67543 22823 ft 180 kts 233°
2026-05-07 19:37 43.04307 15.66220 23028 ft 183 kts 233°
2026-05-07 19:37 43.03477 15.64834 23027 ft 194 kts 233°
2026-05-07 19:37 43.02594 15.63359 23035 ft 206 kts 233°
2026-05-07 19:37 43.01662 15.61808 23033 ft 214 kts 233°
2026-05-07 19:38 43.00697 15.60206 23038 ft 221 kts 232°
2026-05-07 19:38 42.99702 15.58563 23037 ft 226 kts 233°
2026-05-07 19:38 42.98696 15.56892 23039 ft 230 kts 233°
2026-05-07 19:38 42.97674 15.55195 23038 ft 232 kts 232°
2026-05-07 19:39 42.96637 15.53486 23030 ft 234 kts 232°
2026-05-07 19:39 42.95611 15.51786 23031 ft 235 kts 233°
2026-05-07 19:39 42.94558 15.50038 23030 ft 236 kts 232°
2026-05-07 19:39 42.93862 15.48891 23029 ft 236 kts 232°
2026-05-07 19:40 42.92798 15.47135 23029 ft 237 kts 233°
2026-05-07 19:40 42.91752 15.45402 23024 ft 237 kts 232°
2026-05-07 19:40 42.90716 15.43650 23024 ft 237 kts 237°
2026-05-07 19:40 42.89888 15.41742 23028 ft 236 kts 242°
2026-05-07 19:41 42.89069 15.39727 23030 ft 236 kts 242°
2026-05-07 19:41 42.88256 15.37774 23030 ft 237 kts 241°
2026-05-07 19:41 42.87432 15.35825 23031 ft 237 kts 241°
2026-05-07 19:41 42.86622 15.33901 23028 ft 237 kts 241°
2026-05-07 19:42 42.85798 15.31924 23025 ft 237 kts 241°
2026-05-07 19:42 42.84978 15.29967 23025 ft 237 kts 241°
2026-05-07 19:42 42.84156 15.28019 23025 ft 237 kts 241°
2026-05-07 19:42 42.83339 15.26079 23021 ft 236 kts 241°
2026-05-07 19:43 42.82525 15.24135 23018 ft 236 kts 242°
2026-05-07 19:43 42.81708 15.22187 23020 ft 236 kts 241°
2026-05-07 19:43 42.80889 15.20246 23019 ft 236 kts 241°
2026-05-07 19:43 42.80082 15.18330 23023 ft 236 kts 241°
2026-05-07 19:44 42.79264 15.16391 23017 ft 236 kts 241°
2026-05-07 19:44 42.78444 15.14445 23019 ft 237 kts 241°
2026-05-07 19:44 42.77624 15.12503 23017 ft 237 kts 241°
2026-05-07 19:44 42.76803 15.10559 22931 ft 236 kts 241°
2026-05-07 19:45 42.75981 15.08618 22600 ft 236 kts 241°
2026-05-07 19:45 42.75161 15.06678 22202 ft 237 kts 241°
2026-05-07 19:45 42.74336 15.04739 21793 ft 236 kts 241°
2026-05-07 19:45 42.73514 15.02793 21316 ft 237 kts 241°
2026-05-07 19:46 42.72670 15.00797 20848 ft 237 kts 241°
2026-05-07 19:46 42.71835 14.98830 20392 ft 236 kts 240°
2026-05-07 19:46 42.71012 14.96898 19954 ft 235 kts 240°
2026-05-07 19:46 42.70193 14.94971 19518 ft 235 kts 241°
2026-05-07 19:47 42.69376 14.93043 19091 ft 234 kts 240°
2026-05-07 19:47 42.68560 14.91128 18668 ft 234 kts 240°
2026-05-07 19:47 42.67737 14.89190 18238 ft 234 kts 240°
2026-05-07 19:47 42.66943 14.87290 17760 ft 233 kts 241°
2026-05-07 19:48 42.66141 14.85342 17282 ft 233 kts 241°
2026-05-07 19:48 42.65347 14.83424 16817 ft 233 kts 240°
2026-05-07 19:48 42.64558 14.81531 16364 ft 233 kts 240°
2026-05-07 19:48 42.63756 14.79610 15909 ft 233 kts 240°
2026-05-07 19:49 42.62945 14.77664 15457 ft 233 kts 240°
2026-05-07 19:49 42.62145 14.75746 15024 ft 234 kts 241°
2026-05-07 19:49 42.61345 14.73822 14588 ft 234 kts 240°
2026-05-07 19:49 42.60550 14.71865 14153 ft 234 kts 245°
2026-05-07 19:50 42.59973 14.69789 13722 ft 234 kts 251°
2026-05-07 19:50 42.59442 14.67694 13248 ft 235 kts 250°
2026-05-07 19:50 42.58893 14.65611 12778 ft 235 kts 249°
2026-05-07 19:50 42.58331 14.63528 12316 ft 234 kts 249°
2026-05-07 19:51 42.57778 14.61454 11864 ft 234 kts 249°
2026-05-07 19:51 42.57229 14.59379 11419 ft 234 kts 249°
2026-05-07 19:51 42.56668 14.57271 10969 ft 234 kts 249°
2026-05-07 19:51 42.56119 14.55197 10533 ft 231 kts 249°
2026-05-07 19:52 42.55616 14.53138 10036 ft 226 kts 255°
2026-05-07 19:52 42.55534 14.51036 9501 ft 225 kts 274°
2026-05-07 19:52 42.55954 14.48995 8966 ft 227 kts 293°
2026-05-07 19:52 42.56826 14.47201 8436 ft 228 kts 307°
2026-05-07 19:53 42.57812 14.45515 7915 ft 228 kts 307°
2026-05-07 19:53 42.58787 14.43814 7392 ft 228 kts 306°
2026-05-07 19:53 42.59684 14.42054 6885 ft 223 kts 295°
2026-05-07 19:53 42.60124 14.40101 6317 ft 214 kts 276°
2026-05-07 19:54 42.60096 14.38111 5689 ft 209 kts 258°
2026-05-07 19:54 42.59628 14.36272 5069 ft 205 kts 239°
2026-05-07 19:54 42.58793 14.34737 4454 ft 202 kts 223°
2026-05-07 19:54 42.57731 14.33502 3829 ft 200 kts 217°
2026-05-07 19:55 42.56636 14.32344 3233 ft 199 kts 216°
2026-05-07 19:55 42.55569 14.31250 2928 ft 185 kts 216°
2026-05-07 19:55 42.54593 14.30215 2686 ft 171 kts 216°
2026-05-07 19:55 42.53674 14.29273 2470 ft 160 kts 216°
2026-05-07 19:56 42.52811 14.28365 2257 ft 154 kts 216°
2026-05-07 19:56 42.51974 14.27495 2062 ft 148 kts 216°
2026-05-07 19:56 42.51187 14.26681 1871 ft 139 kts 216°
2026-05-07 19:56 42.50442 14.25906 1692 ft 129 kts 217°
2026-05-07 19:57 42.49794 14.25226 1526 ft 106 kts 217°
2026-05-07 19:57 42.49252 14.24658 1375 ft 94 kts 216°
2026-05-07 19:57 42.48743 14.24120 1251 ft 91 kts 213°
2026-05-07 19:57 42.48255 14.23607 1144 ft 86 kts 211°
2026-05-07 19:58 42.47779 14.23129 1037 ft 84 kts 210°
2026-05-07 19:58 42.47308 14.22660 908 ft 84 kts 212°
2026-05-07 19:58 42.46867 14.22179 801 ft 82 kts 212°
2026-05-07 19:58 42.46416 14.21714 702 ft 80 kts 211°
2026-05-07 19:59 42.45970 14.21252 596 ft 80 kts 211°
2026-05-07 19:59 42.45529 14.20792 479 ft 79 kts 211°
2026-05-07 19:59 42.45092 14.20334 396 ft 79 kts 211°
2026-05-07 19:59 42.44647 14.19880 291 ft 79 kts 211°
2026-05-07 20:00 42.44216 14.19428 160 ft 77 kts 212°
2026-05-07 20:00 42.43801 14.18994 49 ft 71 kts 211°
2026-05-07 20:00 42.43441 14.18645 43 ft 53 kts 219°
2026-05-07 20:00 42.43341 14.18586 45 ft 5 kts 102°
2026-05-07 20:01 42.43359 14.18675 44 ft 14 kts 68°
2026-05-07 20:01 42.43340 14.18761 44 ft 11 kts 140°
2026-05-07 20:01 42.43266 14.18802 44 ft 12 kts 164°
2026-05-07 20:01 42.43209 14.18807 44 ft 12 kts 205°
2026-05-07 20:02 42.43135 14.18735 44 ft 14 kts 217°
2026-05-07 20:02 42.43087 14.18715 44 ft 5 kts 136°
2026-05-07 20:02 42.43061 14.18759 44 ft 5 kts 128°
2026-05-07 20:02 42.43056 14.18769 44 ft 0 kts 126°